Hourly Data Report for October 07, 2016

All times are specified in Local Standard Time (LST). Add 1 hour to adjust for Daylight Saving Time where and when it is observed.

KAMLOOPS A
BRITISH COLUMBIA

50°42'09.000" N
120°26'55.000" W
345.30 m
1163781
71887
YKA

Download Data

Hourly Data (October 2016)
Hourly Data Report for October 7, 2016
Temp Definition
°C
Dew Point Temp Definition
°C
Rel Hum Definition
%
Wind Dir Definition
10's deg

Wind Spd Definition
km/h
Visibility Definition
km
Stn Press Definition
kPa
Hmdx Definition


Wind Chill Definition


Weather Definition


TIME
00:00 Legend Double Dagger 9.8 8.7 93 8 10 48.3 96.85     Rain
01:00 Legend Double Dagger 10.3 8.1 86 9 28 48.3 96.75     Rain
02:00 Legend Double Dagger 10.3 7.7 84 8 16 48.3 96.65     Rain
03:00 Legend Double Dagger 10.3 7.4 82 7 19 48.3 96.62     Rain
04:00 Legend Double Dagger 10.7 6.9 77 9 23 48.3 96.55     Rain
05:00 Legend Double Dagger 10.6 6.6 76 9 27 64.4 96.48     LegendNANA
06:00 Legend Double Dagger 10.5 6.5 76 9 23 64.4 96.48     LegendNANA
07:00 Legend Double Dagger 10.8 7.2 78 11 16 64.4 96.46     Mostly Cloudy
08:00 Legend Double Dagger 10.9 7.2 78 10 23 64.4 96.50     Rain Showers
09:00 Legend Double Dagger 11.1 7.3 77 10 15 64.4 96.55     LegendNANA
10:00 Legend Double Dagger 10.5 8.1 85 11 18 64.4 96.61     Rain Showers
11:00 Legend Double Dagger 10.9 8.0 82 9 24 64.4 96.68     Rain Showers
12:00 Legend Double Dagger 11.7 8.0 78 10 18 64.4 96.74     LegendNANA
13:00 Legend Double Dagger 12.5 8.0 74 8 14 64.4 96.79     Mostly Cloudy
14:00 Legend Double Dagger 14.3 8.3 67 8 11 64.4 96.81     LegendNANA
15:00 Legend Double Dagger 16.4 4.9 46 28 13 64.4 96.87     LegendNANA
16:00 Legend Double Dagger 15.4 7.8 60 27 8 64.4 96.96     Mostly Cloudy
17:00 Legend Double Dagger 14.7 4.5 50 23 19 64.4 97.06     Rain Showers
18:00 Legend Double Dagger 14.5 3.4 47 21 24 64.4 97.15     LegendNANA
19:00 Legend Double Dagger 13.9 3.1 48 24 17 64.4 97.27     Mostly Cloudy
20:00 Legend Double Dagger 12.3 3.6 55 24 12 64.4 97.36     LegendNANA
21:00 Legend Double Dagger 10.6 3.7 62 8 9 64.4 97.44     LegendNANA
22:00 Legend Double Dagger 10.2 3.5 63 3 10 64.4 97.53     Mostly Cloudy
23:00 Legend Double Dagger 9.1 4.2 71 19 4 64.4 97.59     LegendNANA

Notes on Data Quality.

Legend

  • E = Estimated
  • M = Missing
  • NA = Not Available
  • ‡ = Partner data that is not subject to review by the National Climate Archives
Date modified: